#timestamp,LO_Frequency,Hit,StdDev 
1618228815.4,286047002.8,N
1618228835.3,286046999.9,N
1618228855.1,286047000.0,N
1618228875.9,286046999.8,N
1618228895.7,286047000.6,N
1618228915.5,286046999.7,N
1618228935.4,286047001.2,N
1618228955.2,286046998.2,N
1618228975.0,286046998.6,N
1618228975.9,286046998.6,N
1618228995.8,286046998.7,N
1618229015.6,286046998.5,N
1618229035.5,286046997.3,N
1618229055.3,286046996.9,N
1618229075.1,286046998.8,N
1618229095.9,286046998.8,N
1618229115.7,286046997.0,N
1618229135.5,286046999.1,N
1618229155.4,286046998.4,N
1618229175.2,286047000.4,N
1618229195.1,286047000.2,N
1618229196.0,286047000.2,N
1618229215.8,286047001.7,N
1618229235.6,286047000.6,N
1618229255.5,286047001.1,N
1618229275.3,286046999.6,N
1618229295.1,286046999.3,N
1618229315.9,286047000.7,N
1618229335.7,286047002.5,N
1618229355.5,286047000.0,N
1618229375.4,286046998.3,N
1618229395.2,286046997.7,N
1618229415.1,286046995.3,Y
1618229416.0,286046995.3,P
1618229435.8,286046995.2,N
1618229455.6,286046997.2,N
1618229475.5,286046997.0,N
1618229495.3,286046999.5,N
1618229515.2,286046995.2,N
1618229535.9,286046993.3,Y
1618229555.7,286047000.8,P
1618229575.6,286047000.8,N
1618229595.4,286047000.2,N
1618229615.2,286046998.6,N
1618229635.1,286046997.0,N
1618229636.0,286046997.0,N
1618229655.8,286046998.5,N
1618229675.7,286046999.8,N
1618229695.5,286047000.5,N
1618229715.3,286047000.9,N
1618229735.2,286047000.9,N
1618229755.0,286046999.0,N
1618229755.9,286046999.0,N
1618229775.7,286046998.5,N
1618229795.6,286047000.7,N
1618229815.4,286047000.6,N
1618229835.3,286046999.8,N
1618229855.1,286047000.6,N
1618229875.8,286047002.5,N
1618229895.7,286047001.8,N
1618229915.5,286047000.1,N
1618229935.4,286047002.0,N
1618229955.2,286047002.4,N
1618229975.0,286047002.8,N
1618229975.9,286047002.8,N
1618229995.8,286047011.9,Y
1618230015.6,286047005.7,P
1618230035.4,286047005.7,N
1618230055.3,286047004.0,N
1618230075.1,286047002.6,N
1618230095.9,286047002.8,N
1618230115.7,286047004.3,N
1618230135.5,286047002.5,N
1618230155.4,286047002.3,N
1618230175.2,286047001.6,N
1618230195.0,286047001.4,N
1618230195.9,286047001.4,N
1618230215.8,286047002.1,N
1618230235.6,286047004.3,N
1618230255.5,286047004.0,N
1618230275.3,286047004.0,N
1618230295.1,286047004.4,N
1618230315.9,286047003.6,N
1618230335.7,286047003.1,N
1618230355.6,286047003.6,N
1618230375.4,286047005.1,Y
1618230395.2,286047002.4,P
1618230415.1,286047001.7,P
1618230416.0,286047001.7,N
1618230435.8,286047002.6,Y
1618230455.7,286046998.5,P
1618230475.5,286046999.4,N
1618230495.3,286046999.4,N
1618230515.2,286046998.3,N
1618230535.0,286046998.5,N
1618230535.9,286046998.5,N
1618230555.7,286047000.5,N
1618230575.6,286046998.4,N
1618230595.4,286046996.6,N
1618230615.3,286046999.3,N
1618230635.1,286046997.1,N
1618230636.0,286046997.1,N
1618230655.8,286046997.8,N
1618230675.7,286046996.7,N
1618230695.5,286046995.3,Y
1618230715.4,286046997.5,P
1618230735.2,286046995.6,P
1618230755.0,286046994.6,P
1618230755.9,286046994.6,Y
1618230775.8,286046995.1,P
1618230795.6,286046997.8,P
1618230815.4,286046997.8,N
1618230835.3,286047001.9,N
1618230855.1,286047002.7,N
1618230875.9,286047000.3,N
1618230895.7,286046998.3,N
1618230915.5,286046996.5,N
1618230935.4,286046998.0,N
1618230955.2,286046995.8,N
1618230975.1,286046997.1,N
1618230976.0,286046997.1,N
1618230995.8,286046995.4,N
1618231015.6,286046995.9,N
1618231035.5,286046999.5,N
1618231055.3,286047000.5,N
1618231075.1,286046999.3,N
1618231095.9,286046998.3,N
1618231115.7,286046999.0,N
1618231135.6,286046998.7,N
1618231155.4,286046996.6,N
1618231175.2,286046999.2,N
1618231195.1,286046996.9,N
1618231196.0,286046996.9,N
1618231215.8,286046996.5,N
1618231235.6,286046999.4,N
1618231255.5,286046997.3,N
1618231275.3,286046997.4,N
1618231295.2,286046993.3,Y
1618231315.9,286046998.5,P
1618231335.7,286047000.0,N
1618231355.6,286046999.3,N
1618231375.4,286046997.1,Y
1618231395.2,286046998.8,P
1618231415.1,286046999.2,P
1618231416.0,286046999.2,P
1618231435.8,286046999.6,N
1618231455.7,286046996.6,Y
1618231475.5,286047000.8,P
1618231495.3,286047000.0,N
1618231515.2,286047001.5,N
1618231535.0,286047005.9,Y
1618231535.9,286047005.9,P
1618231555.8,286047001.9,N
1618231575.6,286047001.8,N
1618231595.4,286047002.8,N
1618231615.3,286046998.1,N
1618231635.1,286046998.5,N
1618231655.8,286047002.3,N
1618231675.7,286047000.8,N
1618231695.5,286046999.2,N
1618231715.4,286046997.7,N
1618231735.2,286046999.1,N
1618231755.0,286046997.3,N
1618231755.9,286046997.3,N
1618231775.8,286046997.1,N
1618231795.6,286046994.9,N
1618231815.4,286046997.2,N
1618231835.3,286046999.2,N
1618231855.1,286046996.8,N
1618231875.9,286046998.6,N
1618231895.7,286047002.7,N
1618231915.5,286047000.4,N
1618231935.4,286046996.7,N
1618231955.2,286046995.6,N
1618231975.0,286046997.9,N
1618231975.9,286046997.9,N
1618231995.8,286046999.6,N
1618232015.6,286046995.5,N
1618232035.5,286046999.2,N
1618232055.3,286046997.7,N
1618232075.1,286046996.5,N
1618232095.9,286046999.3,N
1618232115.7,286046997.3,N
1618232135.5,286046995.2,N
1618232155.4,286046996.7,N
1618232175.2,286046996.6,N
1618232195.0,286046996.6,N
1618232196.0,286046996.6,N
1618232215.8,286046996.7,N
1618232235.6,286046997.4,N
1618232255.5,286046995.2,N
1618232275.3,286046997.5,N
1618232295.2,286046996.7,N
1618232315.9,286046997.9,N
1618232335.7,286046995.0,Y
1618232355.6,286047000.5,P
1618232375.4,286047000.1,N
1618232395.2,286047002.7,N
